DW1347 Weather Reports


Display with metric or nautical units.
time (UTC)temp
F
wind
direction
speed
MPH
gust
MPH
rain 1hr
in
rain 24hr
in
rain mn
in
humidity
%
barometer
mb
20260903084020 48 201 0.0 0.0 0.00 0.00 0.00 75 1028.4
20260903083516 48 217 0.0 0.0 0.00 0.00 0.00 75 1028.1
20260903083010 48 197 0.0 0.0 0.00 0.00 0.00 76 1028.1
20260903082504 48 217 0.0 0.0 0.00 0.00 0.00 77 1028.0
20260903082000 48 217 0.0 0.0 0.00 0.00 0.00 77 1028.0
20260903081455 49 230 0.0 0.0 0.00 0.00 0.00 77 1028.3
20260903080951 49 219 1.0 1.0 0.00 0.00 0.00 77 1028.1
20260903080447 49 214 0.0 0.0 0.00 0.00 0.00 77 1028.0
20260903075943 49 179 1.0 2.0 0.00 0.00 0.00 77 1028.1
20260903075438 48 187 1.0 1.0 0.00 0.00 0.00 79 1028.1
20260903074933 49 209 0.0 0.0 0.00 0.00 0.00 79 1028.3
20260903074432 49 212 0.0 0.0 0.00 0.00 0.00 79 1028.0
20260903073928 50 219 0.0 0.0 0.00 0.00 0.00 78 1028.4
20260903073423 49 175 2.0 2.0 0.00 0.00 0.00 78 1028.6
20260903072918 50 196 1.0 1.0 0.00 0.00 0.00 77 1028.5
20260903072414 50 222 0.0 0.0 0.00 0.00 0.00 77 1028.4
20260903071911 50 184 0.0 0.0 0.00 0.00 0.00 75 1028.6
20260903071407 51 219 0.0 0.0 0.00 0.00 0.00 77 1028.4
20260903070903 51 193 0.0 0.0 0.00 0.00 0.00 77 1028.5
20260903070357 51 219 0.0 0.0 0.00 0.00 0.00 77 1028.6
20260903065851 52 154 2.0 2.0 0.00 0.00 0.00 78 1028.5
20260903065351 52 154 2.0 2.0 0.00 0.00 0.00 78 1028.5
20260903064850 53 203 0.0 1.0 0.00 0.00 0.00 74 1028.6
20260903064346 53 213 1.0 1.0 0.00 0.00 0.00 74 1028.6
20260903063842 53 193 0.0 0.0 0.00 0.00 0.00 76 1028.5
20260903063337 53 212 0.0 0.0 0.00 0.00 0.00 76 1028.6
20260903062833 53 221 0.0 0.0 0.00 0.00 0.00 75 1028.5
20260903062332 54 230 0.0 0.0 0.00 0.00 0.00 74 1028.8
20260903061828 54 167 2.0 2.0 0.00 0.00 0.00 74 1028.5
20260903061321 54 219 0.0 0.0 0.00 0.00 0.00 74 1028.4
20260903060818 55 197 1.0 1.0 0.00 0.00 0.00 71 1028.4
20260903060317 55 204 1.0 1.0 0.00 0.00 0.00 72 1028.4
20260903055815 55 166 2.0 2.0 0.00 0.00 0.00 73 1028.8
20260903055313 55 213 0.0 0.0 0.00 0.00 0.00 72 1028.5
20260903054808 56 222 0.0 0.0 0.00 0.00 0.00 71 1028.5
20260903054302 56 179 2.0 2.0 0.00 0.00 0.00 71 1028.6
20260903053800 57 222 0.0 0.0 0.00 0.00 0.00 71 1028.4
20260903053254 56 215 0.0 0.0 0.00 0.00 0.00 70 1028.4
20260903052750 57 216 0.0 0.0 0.00 0.00 0.00 69 1028.6
20260903052245 57 199 0.0 0.0 0.00 0.00 0.00 69 1028.5
20260903051740 57 208 0.0 0.0 0.00 0.00 0.00 68 1028.4
20260903051236 58 204 0.0 1.0 0.00 0.00 0.00 69 1028.5
20260903050731 59 222 0.0 0.0 0.00 0.00 0.00 65 1028.5
20260903050230 59 189 2.0 2.0 0.00 0.00 0.00 66 1028.6
20260903045725 60 209 0.0 0.0 0.00 0.00 0.00 67 1028.8
20260903045221 59 197 2.0 2.0 0.00 0.00 0.00 66 1028.6
20260903044717 58 207 1.0 1.0 0.00 0.00 0.00 68 1028.8
20260903044212 58 232 0.0 0.0 0.00 0.00 0.00 69 1028.5
20260903043709 58 209 0.0 0.0 0.00 0.00 0.00 69 1028.6
20260903043208 58 219 0.0 0.0 0.00 0.00 0.00 69 1029.0
20260903042708 59 218 0.0 0.0 0.00 0.00 0.00 69 1029.0
20260903042203 59 200 0.0 0.0 0.00 0.00 0.00 69 1029.3
20260903041659 59 195 0.0 1.0 0.00 0.00 0.00 69 1029.5
20260903041155 59 241 1.0 1.0 0.00 0.00 0.00 69 1029.1
20260903040654 59 237 0.0 1.0 0.00 0.00 0.00 68 1029.0
20260903040150 59 224 1.0 2.0 0.00 0.00 0.00 68 1029.1
20260903035646 58 233 2.0 2.0 0.00 0.00 0.00 68 1029.0
20260903035142 59 223 0.0 0.0 0.00 0.00 0.00 67 1028.6
20260903034636 59 224 0.0 0.0 0.00 0.00 0.00 65 1028.5
20260903034131 59 195 1.0 1.0 0.00 0.00 0.00 65 1029.0
20260903033627 59 200 0.0 0.0 0.00 0.00 0.00 65 1029.1
20260903033126 59 210 0.0 0.0 0.00 0.00 0.00 65 1029.1
20260903032622 59 195 0.0 1.0 0.00 0.00 0.00 65 1029.3
20260903032117 60 220 0.0 0.0 0.00 0.00 0.00 65 1028.8
20260903031612 60 217 1.0 1.0 0.00 0.00 0.00 63 1028.9
20260903031107 60 181 1.0 1.0 0.00 0.00 0.00 65 1028.6
20260903030603 60 152 3.0 3.0 0.00 0.00 0.00 65 1028.3
20260903030058 60 204 1.0 1.0 0.00 0.00 0.00 66 1028.5
20260903025553 60 224 0.0 0.0 0.00 0.00 0.00 66 1028.8
20260903025049 60 222 0.0 1.0 0.00 0.00 0.00 67 1028.3
20260903024549 61 223 0.0 0.0 0.00 0.00 0.00 63 1028.4
20260903024043 63 219 0.0 1.0 0.00 0.00 0.00 58 1028.4
20260903023539 64 264 2.0 2.0 0.00 0.00 0.00 57 1028.3
20260903023034 63 250 1.0 1.0 0.00 0.00 0.00 57 1028.5
20260903022533 64 251 0.0 0.0 0.00 0.00 0.00 58 1028.6
20260903022032 64 224 0.0 0.0 0.00 0.00 0.00 56 1028.4
20260903021527 64 283 2.0 3.0 0.00 0.00 0.00 55 1028.6
20260903021022 65 210 1.0 1.0 0.00 0.00 0.00 55 1028.6
20260903020518 65 220 2.0 2.0 0.00 0.00 0.00 53 1028.6
20260903020017 65 305 4.0 5.0 0.00 0.00 0.00 55 1028.1
20260903015513 65 172 0.0 1.0 0.00 0.00 0.00 53 1028.1
20260903015008 65 220 1.0 1.0 0.00 0.00 0.00 55 1028.5
20260903014502 65 222 1.0 2.0 0.00 0.00 0.00 54 1028.4
20260903013957 64 211 0.0 1.0 0.00 0.00 0.00 58 1027.8
20260903013457 64 241 0.0 0.0 0.00 0.00 0.00 56 1027.8
20260903012956 64 224 1.0 1.0 0.00 0.00 0.00 55 1027.8
20260903012455 65 207 0.0 1.0 0.00 0.00 0.00 54 1027.6
20260903011954 66 221 0.0 0.0 0.00 0.00 0.00 53 1027.8
20260903011449 66 210 0.0 0.0 0.00 0.00 0.00 52 1027.4
20260903010944 66 200 1.0 1.0 0.00 0.00 0.00 51 1027.5
20260903010439 67 203 1.0 1.0 0.00 0.00 0.00 51 1027.4
20260903005937 68 200 0.0 0.0 0.00 0.00 0.00 51 1027.6
20260903005433 68 250 0.0 0.0 0.00 0.00 0.00 49 1027.5
20260903004929 68 259 2.0 2.0 0.00 0.00 0.00 49 1027.6
20260903004424 68 223 2.0 3.0 0.00 0.00 0.00 49 1027.8
20260903003920 68 222 0.0 0.0 0.00 0.00 0.00 47 1027.6
20260903003419 69 219 0.0 0.0 0.00 0.00 0.00 47 1027.6
20260903002920 69 223 0.0 0.0 0.00 0.00 0.00 46 1027.8
20260903002415 70 212 0.0 0.0 0.00 0.00 0.00 44 1027.3
20260903001915 70 199 1.0 1.0 0.00 0.00 0.00 44 1027.4
20260903001409 70 60 0.0 1.0 0.00 0.00 0.00 43 1027.1
20260903000909 71 224 1.0 1.0 0.00 0.00 0.00 43 1027.1
20260903000404 72 156 1.0 1.0 0.00 0.00 0.00 43 1027.0
20260902235902 73 215 0.0 0.0 0.00 0.00 0.00 41 1027.4
20260902235358 73 219 0.0 0.0 0.00 0.00 0.00 40 1027.1
20260902234852 73 224 0.0 0.0 0.00 0.00 0.00 40 1027.3
20260902234352 73 217 0.0 0.0 0.00 0.00 0.00 41 1027.1
20260902233850 72 197 1.0 1.0 0.00 0.00 0.00 40 1027.5
20260902233345 73 190 0.0 0.0 0.00 0.00 0.00 41 1027.5
20260902232844 73 197 1.0 1.0 0.00 0.00 0.00 40 1027.4
20260902232339 73 19 3.0 5.0 0.00 0.00 0.00 40 1027.0
20260902231838 74 65 3.0 5.0 0.00 0.00 0.00 40 1027.6
20260902231333 75 41 2.0 3.0 0.00 0.00 0.00 40 1027.5
20260902230828 75 192 1.0 2.0 0.00 0.00 0.00 38 1027.8
20260902230328 77 309 2.0 2.0 0.00 0.00 0.00 38 1027.6
20260902225822 74 227 2.0 3.0 0.00 0.00 0.00 38 1027.6
20260902225317 73 236 1.0 1.0 0.00 0.00 0.00 39 1027.6
20260902224816 73 5 3.0 3.0 0.00 0.00 0.00 39 1027.9
20260902224311 73 45 2.0 2.0 0.00 0.00 0.00 40 1027.6
20260902223808 73 140 1.0 2.0 0.00 0.00 0.00 40 1027.5
20260902223307 74 287 3.0 5.0 0.00 0.00 0.00 39 1027.6
20260902222801 74 31 1.0 3.0 0.00 0.00 0.00 39 1027.4
20260902222300 75 194 1.0 1.0 0.00 0.00 0.00 39 1027.3
20260902221755 75 213 1.0 2.0 0.00 0.00 0.00 38 1027.4
20260902221254 74 95 2.0 2.0 0.00 0.00 0.00 39 1027.4
20260902220750 74 255 2.0 2.0 0.00 0.00 0.00 39 1027.5
20260902220249 74 139 3.0 3.0 0.00 0.00 0.00 39 1027.5
20260902215745 74 138 7.0 7.0 0.00 0.00 0.00 38 1027.3
20260902215240 73 226 0.0 0.0 0.00 0.00 0.00 39 1027.5
20260902214736 73 228 1.0 1.0 0.00 0.00 0.00 39 1027.5
20260902214234 73 209 0.0 1.0 0.00 0.00 0.00 39 1027.8
20260902213730 73 197 1.0 1.0 0.00 0.00 0.00 39 1027.9
20260902213230 74 216 1.0 2.0 0.00 0.00 0.00 39 1027.8
20260902212729 74 335 4.0 5.0 0.00 0.00 0.00 39 1027.6
20260902212226 74 262 5.0 6.0 0.00 0.00 0.00 38 1028.0
20260902211722 74 200 2.0 2.0 0.00 0.00 0.00 38 1028.0
20260902211217 74 90 1.0 1.0 0.00 0.00 0.00 38 1028.1
20260902210712 74 146 1.0 1.0 0.00 0.00 0.00 39 1028.0
20260902210207 73 294 2.0 2.0 0.00 0.00 0.00 38 1028.0
20260902205705 74 130 1.0 2.0 0.00 0.00 0.00 39 1028.3
20260902205200 75 151 2.0 2.0 0.00 0.00 0.00 38 1027.9
20260902204655 76 353 3.0 5.0 0.00 0.00 0.00 36 1028.4
20260902204149 74 222 0.0 1.0 0.00 0.00 0.00 37 1028.5
20260902203645 74 99 3.0 5.0 0.00 0.00 0.00 38 1028.5
20260902203140 75 123 1.0 2.0 0.00 0.00 0.00 38 1028.6
20260902202635 75 133 1.0 2.0 0.00 0.00 0.00 37 1028.9
20260902202132 75 4 3.0 5.0 0.00 0.00 0.00 37 1028.3
20260902201627 75 69 3.0 5.0 0.00 0.00 0.00 37 1028.5
20260902201127 74 205 0.0 1.0 0.00 0.00 0.00 37 1028.9
20260902200622 75 38 4.0 6.0 0.00 0.00 0.00 38 1028.8
20260902200118 75 51 4.0 7.0 0.00 0.00 0.00 37 1028.4
20260902195614 74 61 4.0 6.0 0.00 0.00 0.00 37 1028.6
20260902195113 73 61 4.0 6.0 0.00 0.00 0.00 38 1028.9
20260902194612 75 35 8.0 10.0 0.00 0.00 0.00 37 1028.8
20260902194107 74 221 2.0 2.0 0.00 0.00 0.00 37 1028.9
20260902193603 75 83 3.0 5.0 0.00 0.00 0.00 37 1028.9
20260902193103 73 95 2.0 3.0 0.00 0.00 0.00 40 1029.0
20260902192601 72 181 2.0 3.0 0.00 0.00 0.00 41 1029.1
20260902192100 72 223 3.0 6.0 0.00 0.00 0.00 39 1028.9
20260902191555 73 139 5.0 5.0 0.00 0.00 0.00 38 1029.1
20260902191050 73 227 3.0 3.0 0.00 0.00 0.00 38 1029.5
20260902190545 74 189 1.0 2.0 0.00 0.00 0.00 37 1029.3
20260902190041 73 252 3.0 5.0 0.00 0.00 0.00 37 1029.3
20260902185537 73 336 2.0 2.0 0.00 0.00 0.00 36 1029.5
20260902185032 74 230 4.0 5.0 0.00 0.00 0.00 35 1029.5
20260902184527 74 229 3.0 5.0 0.00 0.00 0.00 37 1029.4
20260902184022 75 215 1.0 1.0 0.00 0.00 0.00 34 1029.5
20260902183519 75 188 3.0 3.0 0.00 0.00 0.00 34 1029.5
20260902183015 76 133 1.0 2.0 0.00 0.00 0.00 34 1029.7
20260902182511 76 134 3.0 3.0 0.00 0.00 0.00 35 1029.7
20260902182006 76 127 2.0 5.0 0.00 0.00 0.00 35 1029.9
20260902181502 75 40 2.0 5.0 0.00 0.00 0.00 35 1029.8
20260902180956 75 72 3.0 5.0 0.00 0.00 0.00 35 1029.9
20260902180457 74 177 1.0 1.0 0.00 0.00 0.00 35 1030.0
20260902175952 75 170 3.0 3.0 0.00 0.00 0.00 33 1030.5
20260902175447 76 39 3.0 3.0 0.00 0.00 0.00 34 1030.3
20260902174943 76 209 0.0 1.0 0.00 0.00 0.00 35 1030.2
20260902174439 75 235 1.0 1.0 0.00 0.00 0.00 35 1030.3
20260902173935 74 154 3.0 5.0 0.00 0.00 0.00 35 1030.7
20260902173434 74 354 3.0 3.0 0.00 0.00 0.00 35 1030.4
20260902172929 75 334 3.0 5.0 0.00 0.00 0.00 35 1030.2
20260902172428 74 142 2.0 2.0 0.00 0.00 0.00 35 1030.4
20260902171924 73 199 1.0 2.0 0.00 0.00 0.00 37 1030.4
20260902171419 74 291 3.0 5.0 0.00 0.00 0.00 37 1030.5
20260902170915 73 14 4.0 5.0 0.00 0.00 0.00 37 1030.8
20260902170410 73 43 1.0 2.0 0.00 0.00 0.00 38 1030.4
20260902165906 73 302 4.0 5.0 0.00 0.00 0.00 38 1030.5
20260902165405 73 93 3.0 3.0 0.00 0.00 0.00 38 1030.8
20260902164900 71 128 0.0 1.0 0.00 0.00 0.00 39 1030.4
20260902164355 73 216 5.0 7.0 0.00 0.00 0.00 39 1030.7
20260902163854 73 102 4.0 5.0 0.00 0.00 0.00 38 1030.7
20260902163349 71 153 2.0 2.0 0.00 0.00 0.00 39 1030.7
20260902162847 71 356 9.0 13.0 0.00 0.00 0.00 39 1030.4
20260902162342 71 125 3.0 6.0 0.00 0.00 0.00 40 1030.7
20260902161837 71 74 5.0 7.0 0.00 0.00 0.00 38 1030.7
20260902161332 71 201 1.0 2.0 0.00 0.00 0.00 39 1030.7
20260902160828 72 16 7.0 9.0 0.00 0.00 0.00 38 1030.8
20260902160323 71 261 1.0 2.0 0.00 0.00 0.00 38 1030.7
20260902155821 71 319 2.0 2.0 0.00 0.00 0.00 39 1030.5
20260902155320 71 199 1.0 1.0 0.00 0.00 0.00 40 1030.8
20260902154816 71 48 3.0 3.0 0.00 0.00 0.00 38 1030.8
20260902154311 70 350 1.0 2.0 0.00 0.00 0.00 40 1030.9
20260902153810 70 194 0.0 0.0 0.00 0.00 0.00 39 1030.9
20260902153304 70 44 1.0 1.0 0.00 0.00 0.00 39 1030.8
20260902152800 69 23 2.0 2.0 0.00 0.00 0.00 39 1030.5
20260902152256 69 193 1.0 1.0 0.00 0.00 0.00 40 1030.7
20260902151756 69 170 1.0 1.0 0.00 0.00 0.00 41 1031.0
20260902151251 68 148 4.0 7.0 0.00 0.00 0.00 41 1030.7
20260902150746 68 170 0.0 1.0 0.00 0.00 0.00 45 1030.8
20260902150243 68 195 0.0 0.0 0.00 0.00 0.00 43 1030.5
20260902145741 67 201 0.0 1.0 0.00 0.00 0.00 43 1030.5
20260902145237 64 191 1.0 1.0 0.00 0.00 0.00 47 1030.7
20260902144732 63 226 1.0 1.0 0.00 0.00 0.00 52 1030.3
20260902144228 62 214 0.0 0.0 0.00 0.00 0.00 57 1030.7
20260902143723 61 201 0.0 0.0 0.00 0.00 0.00 55 1030.7
20260902143218 59 162 0.0 1.0 0.00 0.00 0.00 58 1030.7
20260902142714 58 187 0.0 1.0 0.00 0.00 0.00 58 1030.8
20260902142210 57 209 0.0 0.0 0.00 0.00 0.00 60 1030.8
20260902141709 56 220 0.0 0.0 0.00 0.00 0.00 60 1030.5
20260902141205 57 208 0.0 0.0 0.00 0.00 0.00 59 1030.4
20260902140701 55 144 2.0 2.0 0.00 0.00 0.00 57 1030.5
20260902140201 54 195 1.0 1.0 0.00 0.00 0.00 60 1030.5
20260902135700 53 194 1.0 1.0 0.00 0.00 0.00 62 1030.5
20260902135155 53 215 0.0 0.0 0.00 0.00 0.00 62 1030.4
20260902134650 52 168 2.0 2.0 0.00 0.00 0.00 63 1030.9
20260902134150 51 190 1.0 1.0 0.00 0.00 0.00 65 1030.7
20260902133646 50 177 1.0 1.0 0.00 0.00 0.00 67 1030.9
20260902133145 48 218 0.0 0.0 0.00 0.00 0.00 70 1030.4
20260902132641 47 203 0.0 1.0 0.00 0.00 0.00 71 1030.4
20260902132136 46 208 0.0 0.0 0.00 0.00 0.00 75 1030.4
20260902131632 47 208 1.0 1.0 0.00 0.00 0.00 73 1030.3
20260902131127 47 158 1.0 1.0 0.00 0.00 0.00 74 1030.7
20260902130623 46 189 1.0 1.0 0.00 0.00 0.00 76 1030.4
20260902130118 47 249 0.0 1.0 0.00 0.00 0.00 77 1030.8
20260902125614 47 217 0.0 0.0 0.00 0.00 0.00 75 1030.5
20260902125109 47 201 0.0 1.0 0.00 0.00 0.00 76 1030.5
20260902124605 46 170 2.0 2.0 0.00 0.00 0.00 79 1030.4
20260902124105 46 219 0.0 0.0 0.00 0.00 0.00 81 1030.2
20260902123601 46 216 0.0 0.0 0.00 0.00 0.00 80 1030.2
20260902123055 47 218 0.0 0.0 0.00 0.00 0.00 80 1030.2
20260902122550 48 223 0.0 0.0 0.00 0.00 0.00 77 1029.9
20260902122046 47 217 0.0 0.0 0.00 0.00 0.00 79 1030.2
20260902121545 47 181 1.0 1.0 0.00 0.00 0.00 81 1030.0
20260902121040 48 207 0.0 1.0 0.00 0.00 0.00 80 1030.0
20260902120536 48 249 0.0 0.0 0.00 0.00 0.00 78 1030.2
20260902120032 50 192 1.0 1.0 0.00 0.00 0.00 75 1029.8
20260902115527 49 193 1.0 1.0 0.00 0.00 0.00 76 1030.0
20260902115024 50 209 0.0 1.0 0.00 0.00 0.00 77 1030.0
20260902114519 50 197 0.0 1.0 0.00 0.00 0.00 76 1030.3
20260902114019 49 238 0.0 0.0 0.00 0.00 0.00 78 1030.2
20260902113515 48 195 1.0 1.0 0.00 0.00 0.00 81 1030.2
20260902113010 48 210 0.0 0.0 0.00 0.00 0.00 81 1029.9
20260902112505 49 224 0.0 0.0 0.00 0.00 0.00 79 1029.8
20260902112001 48 176 2.0 2.0 0.00 0.00 0.00 80 1029.9
20260902111457 47 178 1.0 1.0 0.00 0.00 0.00 83 1030.0
20260902110952 46 206 0.0 0.0 0.00 0.00 0.00 85 1030.2
20260902110448 47 192 0.0 0.0 0.00 0.00 0.00 85 1029.9
20260902105943 48 224 0.0 0.0 0.00 0.00 0.00 83 1030.2
20260902105439 47 163 3.0 3.0 0.00 0.00 0.00 85 1029.9
20260902104933 47 226 0.0 0.0 0.00 0.00 0.00 85 1030.3
20260902104429 47 166 2.0 2.0 0.00 0.00 0.00 86 1030.0
20260902103929 48 211 0.0 0.0 0.00 0.00 0.00 84 1030.2
20260902103424 49 232 0.0 0.0 0.00 0.00 0.00 81 1030.0
20260902102919 48 152 2.0 2.0 0.00 0.00 0.00 81 1030.0
20260902102416 49 211 0.0 0.0 0.00 0.00 0.00 81 1030.0
20260902101912 49 206 0.0 0.0 0.00 0.00 0.00 81 1030.0
20260902101406 49 198 0.0 1.0 0.00 0.00 0.00 81 1030.3
20260902100906 49 220 0.0 0.0 0.00 0.00 0.00 80 1030.0
20260902100406 49 207 0.0 0.0 0.00 0.00 0.00 80 1029.8
20260902095900 48 175 1.0 2.0 0.00 0.00 0.00 82 1029.9
20260902095355 49 222 0.0 0.0 0.00 0.00 0.00 81 1030.0
20260902094855 49 190 1.0 1.0 0.00 0.00 0.00 81 1030.0
20260902094351 50 181 2.0 2.0 0.00 0.00 0.00 79 1030.2
20260902093850 51 218 0.0 0.0 0.00 0.00 0.00 79 1030.3
20260902093346 51 209 0.0 0.0 0.00 0.00 0.00 78 1030.2
20260902092844 50 180 2.0 2.0 0.00 0.00 0.00 79 1030.2
20260902092340 50 207 0.0 0.0 0.00 0.00 0.00 79 1030.3
20260902091834 50 187 1.0 1.0 0.00 0.00 0.00 79 1030.0
20260902091330 50 196 0.0 1.0 0.00 0.00 0.00 79 1030.2
20260902090827 50 221 0.0 0.0 0.00 0.00 0.00 78 1030.2
20260902090326 50 211 0.0 0.0 0.00 0.00 0.00 78 1030.3
20260902085825 50 193 0.0 0.0 0.00 0.00 0.00 78 1030.2
20260902085321 50 203 0.0 1.0 0.00 0.00 0.00 78 1030.2
20260902084816 50 172 1.0 2.0 0.00 0.00 0.00 78 1030.3